Probability
3 3 3 3 3 3 3 3 0 0 0 0 0 0 0 0 0 0 0 0 0 0 0 0 0 0 0 0 0 0 0 0 0 0 0 0 0 0
6 3 3 3 3 3 3 3 0 3 0 0 0 0 0 0 0 0 0 0 0 0 0 0 0 0 0 0 0 0 0 0 0 0 0 0 0 0
3 3 3 3 3 3 3 0 0 6 0 0 0 0 0 0 0 0 0 0 0 0 0 0 0 0 0 0 0 0 0 0 0 0 0 0 0 0
6 3 3 3 3 3 0 0 0 0 0 0 0 0 0 0 0 0 0 0 0 0 0 0 0 0 0 0 0 0 0 0 0 0 0 0 0 0
6 3 3 3 3 0 0 0 0 0 0 0 0 0 0 0 0 0 0 0 0 0 0 0 0 0 0 0 0 0 0 0 0 0 0 0 0 0
3 3 3 3 3 0 0 0 0 0 0 0 0 0 0 0 0 0 0 0 0 0 0 0 0 0 0 0 0 0 0 0 0 0 0 0 0 0
3 3 3 0 0 0 0 0 0 0 0 0 0 0 0 0 0 0 0 0 0 0 0 0 0 0 0 0 0 0 0 0 0 0 0 0 0 0
0 0 0 0 0 0 0 0 0 0 0 0 0 0 0 0 0 0 0 0 0 0 0 0 0 0 0 0 0 0 0 0 0 0 0 0 0 0
0 0 0 0 0 0 0 0 0 0 0 0 0 0 0 0 0 0 0 0 0 0 0 0 0 0 0 0 0 0 0 0 0 0 0 0 0 0
0 0 0 0 0 0 0 0 0 0 0 0 0 0 0 0 0 0 0 0 0 0 0 0 0 0 0 0 0 0 0 0 0 0 0 0 0 0
0 0 0 0 0 0 0 0 0 0 0 0 0 0 0 0 0 0 0 0 0 0 0 0 0 0 0 0 0 0 0 0 0 0 0 0 0 0
0 0 0 0 0 0 0 0 0 0 0 0 0 0 0 0 0 0 0 0 0 0 0 0 0 0 0 0 0 0 0 0 0 0 0 0 0 0
0 0 3 0 0 0 0 0 0 0 0 0 0 0 0 0 0 0 0 0 0 0 0 0 0 0 0 0 0 0 0 0 0 0 0 0 0 0
3 3 3 0 0 0 0 0 0 0 0 0 0 0 0 0 0 0 0 0 0 0 0 0 0 0 0 0 0 0 0 0 0 0 0 0 0 0
0 0 0 0 0 0 0 0 0 0 0 0 0 0 0 0 0 0 0 0 0 0 0 0 0 0 0 0 0 0 0 0 0 0 0 0 0 0
0 0 0 0 0 0 0 0 0 0 0 0 0 0 0 0 0 0 0 0 0 0 0 0 0 0 0 0 0 0 0 0 0 0 0 0 0 0
0 3 0 0 0 0 0 0 0 0 0 0 0 0 0 0 0 0 0 0 0 0 0 0 0 0 0 0 0 0 0 0 0 0 0 0 0 0
0 3 3 3 3 3 0 0 0 0 0 0 0 0 0 0 0 0 0 0 0 0 0 0 0 0 0 0 0 0 0 0 0 0 0 0 0 0
0 3 3 3 3 3 3 3 0 0 0 0 0 0 0 0 0 0 0 0 0 0 0 0 0 0 0 0 0 0 0 0 0 0 0 0 0 0
3 3 3 3 3 3 3 0 0 0 0 0 0 0 0 0 0 0 0 0 0 0 0 0 0 0 0 0 0 0 0 0 0 0 0 0 0 0
0 3 0 0 0 0 0 0 0 0 0 0 0 0 0 0 0 0 0 0 0 0 0 0 0 0 0 0 0 0 0 0 0 0 0 0 0 0
0 0 0 0 0 0 0 0 0 0 0 0 0 0 0 0 0 0 0 0 0 0 0 0 0 0 0 0 0 0 0 0 0 0 0 0 0 0
0 0 0 0 0 0 0 0 0 0 0 0 0 0 0 0 0 0 0 0 0 0 0 0 0 0 0 0 0 0 0 0 0 0 0 0 0 0
Height
5829 5829 5829 5829 5829 5829 5829 5829 5829 5829 5828 5827 5827 5826 5826 5826 5825 5825 5824 5824 5824 5824 5823 5822 5822 5821 5820 5819 5818 5817 5816 5815 5814 5812 5811 5809 5808 5806
5825 5825 5825 5825 5826 5826 5826 5826 5826 5825 5825 5824 5824 5824 5823 5823 5822 5822 5822 5822 5821 5821 5821 5820 5819 5818 5817 5816 5816 5814 5813 5812 5811 5810 5808 5807 5805 5803
5821 5821 5821 5821 5822 5822 5822 5822 5822 5822 5822 5821 5820 5820 5820 5820 5819 5819 5819 5819 5819 5818 5818 5817 5816 5816 5814 5814 5813 5812 5810 5809 5808 5807 5805 5804 5802 5801
5816 5816 5817 5817 5818 5818 5818 5818 5818 5818 5818 5818 5817 5817 5817 5817 5817 5816 5816 5816 5816 5815 5815 5814 5813 5812 5811 5810 5809 5808 5807 5806 5805 5803 5802 5800 5799 5797
5812 5812 5812 5813 5813 5814 5814 5814 5814 5814 5814 5814 5814 5813 5814 5813 5813 5813 5813 5813 5812 5812 5811 5811 5810 5809 5808 5807 5806 5805 5804 5802 5801 5799 5798 5796 5795 5793
5807 5807 5808 5808 5808 5809 5809 5809 5809 5809 5809 5810 5810 5810 5810 5810 5809 5809 5809 5809 5809 5808 5808 5807 5806 5805 5804 5803 5802 5801 5800 5798 5797 5796 5794 5792 5791 5790
5801 5802 5802 5803 5803 5804 5804 5804 5804 5805 5805 5805 5805 5805 5805 5805 5805 5805 5805 5805 5805 5804 5804 5803 5802 5801 5800 5799 5798 5797 5796 5795 5793 5792 5790 5789 5787 5786
5795 5796 5797 5797 5798 5798 5799 5799 5799 5800 5800 5800 5800 5800 5800 5801 5801 5801 5801 5801 5800 5800 5799 5799 5798 5797 5796 5795 5794 5793 5792 5791 5789 5788 5787 5785 5783 5781
5788 5789 5790 5791 5792 5792 5793 5793 5794 5794 5794 5795 5795 5795 5795 5796 5796 5796 5796 5795 5795 5795 5794 5793 5793 5792 5791 5791 5790 5789 5788 5786 5785 5784 5782 5781 5779 5777
5781 5782 5783 5784 5785 5785 5786 5787 5787 5788 5788 5789 5789 5789 5790 5790 5790 5790 5790 5790 5790 5789 5788 5788 5787 5787 5786 5786 5785 5784 5783 5782 5781 5779 5778 5776 5775 5773
5773 5774 5775 5776 5777 5778 5779 5780 5781 5781 5782 5782 5782 5783 5783 5784 5784 5784 5784 5784 5784 5783 5782 5782 5782 5781 5780 5780 5779 5779 5778 5777 5776 5775 5773 5772 5770 5769
5764 5765 5766 5768 5769 5770 5771 5772 5773 5774 5774 5775 5775 5776 5776 5777 5777 5777 5777 5777 5777 5777 5777 5776 5775 5775 5775 5774 5774 5773 5772 5771 5770 5769 5768 5766 5765 5763
5755 5756 5757 5759 5760 5761 5762 5764 5765 5766 5766 5767 5767 5768 5769 5770 5770 5770 5770 5771 5771 5771 5770 5770 5769 5769 5768 5768 5767 5767 5766 5765 5764 5763 5762 5760 5759 5758
5745 5746 5748 5749 5751 5752 5754 5755 5756 5757 5758 5758 5759 5761 5762 5762 5763 5763 5763 5763 5763 5764 5764 5763 5763 5762 5762 5761 5761 5760 5760 5759 5758 5757 5756 5754 5753 5752
5735 5736 5738 5740 5741 5743 5744 5745 5746 5747 5748 5749 5751 5752 5753 5754 5754 5755 5755 5755 5756 5756 5756 5756 5756 5755 5755 5755 5754 5754 5753 5752 5751 5750 5749 5748 5747 5745
5724 5726 5727 5729 5731 5732 5734 5735 5736 5737 5738 5740 5741 5743 5744 5744 5745 5746 5746 5747 5747 5748 5748 5748 5748 5748 5748 5747 5747 5746 5745 5745 5744 5743 5742 5741 5740 5738
5712 5714 5716 5718 5720 5721 5723 5724 5725 5727 5728 5730 5731 5733 5734 5735 5736 5737 5737 5738 5739 5739 5740 5740 5739 5739 5739 5739 5738 5738 5738 5737 5736 5735 5735 5734 5732 5731
5700 5702 5704 5706 5708 5710 5712 5713 5714 5716 5718 5719 5721 5723 5724 5726 5727 5727 5728 5729 5729 5730 5731 5731 5731 5731 5730 5730 5730 5730 5729 5728 5728 5727 5726 5726 5724 5723
5688 5690 5692 5694 5697 5698 5700 5701 5703 5704 5706 5708 5710 5712 5714 5715 5716 5717 5718 5719 5720 5721 5721 5721 5721 5722 5722 5722 5721 5721 5720 5720 5719 5718 5717 5717 5716 5715
5676 5678 5680 5682 5684 5686 5688 5690 5691 5693 5695 5697 5699 5701 5703 5704 5706 5707 5708 5709 5710 5711 5711 5712 5712 5712 5712 5712 5712 5712 5711 5710 5709 5709 5708 5707 5706 5705
5664 5666 5668 5670 5672 5674 5676 5678 5680 5681 5684 5686 5688 5690 5692 5693 5695 5696 5697 5699 5699 5700 5701 5701 5702 5701 5701 5701 5702 5702 5701 5700 5700 5699 5698 5697 5696 5695
5652 5654 5656 5658 5660 5662 5664 5666 5668 5670 5672 5674 5677 5679 5681 5683 5684 5685 5686 5688 5689 5690 5690 5691 5690 5690 5691 5691 5691 5692 5691 5691 5690 5689 5687 5687 5686 5685
5641 5643 5645 5646 5648 5650 5652 5654 5657 5659 5661 5663 5665 5667 5669 5671 5673 5674 5676 5676 5677 5678 5679 5679 5680 5680 5680 5680 5681 5681 5681 5680 5679 5679 5678 5676 5675 5674
Wind_Speed
14 14 14 13 12 12 12 12 12 12 12 11 11 10 10 10 10 10 10 10 10 9 9 10 10 10 10 10 10 10 10 10 10 11 11 12 12 12
15 15 14 14 14 13 13 12 12 12 12 12 12 11 11 10 10 10 9 10 10 10 10 10 11 11 10 11 11 11 11 11 11 12 12 12 12 12
16 15 15 15 15 14 14 14 13 13 12 13 13 12 12 11 11 11 10 10 10 10 10 11 11 12 12 12 12 12 11 12 12 12 13 13 13 13
16 16 15 15 15 15 16 15 15 14 14 14 13 13 12 12 12 12 12 11 11 11 11 12 12 12 13 13 13 13 13 13 13 14 14 14 14 13
17 16 16 16 16 16 16 16 16 15 15 14 13 13 13 13 13 13 13 13 13 13 13 13 13 13 13 14 14 14 14 14 14 15 15 15 14 14
18 18 17 17 17 17 17 17 16 15 15 15 15 14 14 13 14 14 14 14 14 14 14 14 14 14 14 14 14 14 15 15 15 15 15 15 15 15
20 19 19 18 17 17 17 18 17 17 16 16 16 15 15 15 15 15 15 15 15 15 15 15 15 14 14 14 15 15 16 15 15 15 15 15 15 15
21 21 21 20 20 19 19 19 19 18 17 17 17 17 16 16 16 16 16 16 17 17 17 16 16 15 15 15 15 16 16 16 15 15 15 15 15 15
23 23 23 22 22 21 21 20 20 20 19 19 19 18 18 18 17 17 18 18 18 18 18 18 17 17 17 16 16 16 16 16 15 15 15 15 15 15
24 25 24 24 24 23 22 22 21 21 21 20 20 20 20 20 19 19 19 19 19 19 19 19 18 18 18 18 17 17 17 16 17 16 16 16 16 16
26 26 26 25 25 25 24 24 23 23 23 22 22 22 21 21 21 21 20 19 19 19 19 19 19 19 19 19 19 18 18 18 18 18 17 17 17 17
27 27 27 26 25 26 26 25 25 25 24 24 23 23 23 22 21 21 21 21 20 20 19 20 20 19 19 19 19 19 19 19 19 19 19 19 18 18
28 28 28 28 27 27 27 27 27 27 26 26 25 25 24 23 23 22 22 22 22 21 21 21 20 20 20 20 20 20 20 20 20 21 20 20 19 19
29 29 30 30 29 29 29 29 29 28 28 27 27 27 26 26 25 25 24 24 24 23 22 22 22 22 21 21 21 21 21 21 21 21 21 21 20 20
31 31 31 31 30 30 30 30 30 30 30 29 29 28 27 27 27 27 26 26 26 25 25 24 24 24 23 22 22 22 23 22 22 22 22 21 21 21
33 33 33 33 32 32 32 32 31 30 30 31 31 30 29 29 28 28 27 27 27 27 27 26 25 25 24 24 24 23 23 23 24 23 23 23 23 23
34 34 34 34 34 34 34 35 34 33 32 32 32 32 31 30 30 30 29 28 28 28 28 27 26 26 26 26 25 25 25 25 25 25 24 24 24 25
35 35 35 35 35 35 36 36 36 35 35 33 33 33 32 32 31 31 30 29 28 28 28 28 28 28 27 26 26 26 26 26 26 27 26 26 25 26
36 35 35 36 35 35 36 36 35 35 35 35 34 33 33 33 32 32 31 30 30 29 29 29 29 28 28 27 27 27 27 27 27 28 28 28 27 27
35 35 35 35 35 35 35 35 35 35 35 35 35 34 34 34 33 33 32 31 31 30 30 30 30 29 29 29 28 28 28 29 29 29 29 29 28 28
35 35 36 36 35 35 35 35 35 35 35 35 35 34 33 33 33 33 32 32 31 31 31 31 31 31 30 30 30 29 29 30 30 30 30 30 30 30
34 35 35 36 36 35 35 35 35 35 35 34 35 35 34 33 33 32 32 32 32 32 31 31 31 31 31 31 31 31 31 31 31 31 31 31 31 31
32 33 34 35 35 35 35 36 36 36 35 35 35 34 34 34 33 33 32 33 33 32 32 32 32 33 33 33 32 32 32 33 33 32 32 33 33 33
Wind_Direction
261 261 260 260 260 261 265 267 269 270 269 270 273 274 271 268 268 268 268 268 270 272 276 279 278 278 278 280 285 290 292 294 299 300 301 301 301 299
261 260 259 260 260 260 261 264 264 265 266 268 270 269 269 267 266 265 266 270 270 270 274 278 278 279 279 279 283 287 288 292 296 298 299 298 297 297
260 261 261 261 259 259 261 262 263 262 263 266 269 267 268 266 265 263 264 266 266 269 273 277 279 277 280 280 280 283 286 287 290 293 298 298 297 296
259 261 258 257 257 260 263 263 262 261 261 264 265 263 264 265 264 263 262 264 267 270 273 277 280 278 278 279 279 282 285 288 288 289 295 297 296 294
259 259 258 258 258 260 262 261 262 263 260 258 259 261 263 265 264 263 262 265 267 271 275 277 278 278 278 279 281 283 285 286 287 290 292 293 294 292
260 261 260 259 260 260 260 261 260 260 258 257 257 259 261 265 265 264 262 264 267 271 275 277 278 278 279 279 280 283 287 287 288 291 292 292 290 289
259 260 260 259 261 261 259 261 260 260 258 258 259 257 259 263 266 263 262 264 268 272 275 277 278 277 278 280 281 283 286 288 289 292 293 293 290 288
259 259 259 259 259 261 259 260 260 259 257 257 259 259 260 263 266 265 264 266 269 272 273 274 275 275 276 278 280 284 287 290 292 293 294 296 294 292
259 259 258 258 258 260 260 259 259 258 258 258 258 259 261 262 264 265 265 265 268 272 273 273 273 274 274 276 278 283 287 289 291 292 294 294 294 294
259 258 258 258 258 259 260 259 259 258 258 258 257 259 261 263 263 263 265 266 269 272 272 272 273 273 275 276 278 281 286 288 289 291 293 292 292 291
259 259 258 257 257 258 259 258 259 258 258 259 258 258 260 262 263 264 266 266 268 272 273 272 272 272 273 274 276 280 283 285 288 289 290 290 288 288
259 258 257 256 256 257 258 258 258 259 259 258 257 257 258 260 262 263 265 265 267 270 272 273 272 273 272 273 275 277 279 282 285 286 287 287 287 288
258 257 256 256 255 255 256 257 257 258 258 257 256 256 257 258 260 262 263 263 265 267 269 271 273 274 274 274 274 275 277 280 283 283 283 285 286 287
257 256 256 256 256 256 256 257 257 257 257 257 256 256 257 258 259 260 260 261 262 265 267 270 272 273 274 275 275 275 277 279 281 282 282 283 285 287
257 256 255 256 256 257 257 256 257 257 256 255 255 255 256 256 257 258 258 259 260 262 265 268 270 271 272 274 275 276 277 278 280 282 282 283 284 286
257 256 255 255 255 255 256 256 256 256 255 254 254 254 255 256 257 258 259 260 260 261 263 266 267 269 270 272 274 276 277 277 278 280 282 283 283 285
258 256 256 255 255 255 255 255 256 256 256 255 253 253 255 256 256 258 260 262 261 261 263 264 266 268 270 271 272 273 274 276 277 277 280 282 284 285
258 256 255 255 255 256 256 256 256 255 255 255 254 254 255 255 257 258 259 260 260 261 263 264 265 267 268 269 271 273 274 276 277 276 276 279 282 284
258 256 255 255 255 255 256 256 256 254 253 254 253 253 254 255 257 258 258 259 260 261 262 263 265 266 267 267 268 271 273 274 275 276 276 277 279 281
258 256 255 255 255 254 255 254 255 253 253 253 253 253 254 254 256 257 258 258 259 260 261 263 265 266 266 267 268 269 271 273 275 276 277 277 277 280
258 256 255 254 254 254 253 253 253 253 252 253 252 252 253 254 255 256 257 258 258 260 262 264 265 265 265 266 268 269 271 273 275 276 277 277 278 279
257 255 254 254 254 253 252 252 253 252 252 252 251 251 252 254 255 256 257 258 259 261 263 263 263 264 265 266 268 269 271 273 274 276 277 278 279 281
257 255 254 254 253 252 251 251 251 251 251 252 251 252 252 253 254 256 258 259 260 260 262 262 263 264 265 267 268 270 272 273 274 275 277 278 280 281